Weather History for MMDO - January, 2013

Change the Weather History Date:

Thursday, January 17, 2013

  Actual Average Record
Temperature  
Mean Temperature 42 °F -  
Max Temperature 60 °F 71 °F - ()
Min Temperature 25 °F 35 °F - ()
Degree Days  
Heating Degree Days 22    
Moisture  
Dew Point 4 °F    
Average Humidity 20    
Maximum Humidity 46    
Minimum Humidity 10    
Precipitation  
Precipitation 0.00 in - - ()
Sea Level Pressure  
Sea Level Pressure 30.42 in    
Wind  
Wind Speed 4 mph ()    
Max Wind Speed 12 mph    
Max Gust Speed -    
Visibility 11.9 miles    
Events      
T = Trace of Precipitation, MM = Missing Value Source: Averaged Metar Reports

Daily Weather History Graph

Daily Weather History Graph

Search for Another Location

Airport or City:

Trip Planner

Search our weather history database for the weather conditions in past years. The results will help you decide how hot, cold, wet, or windy it might be!

Date:

Astronomy

Jan. 17, 2013 Rise Set
Actual Time 7:43 AM CST 6:33 PM CST
Civil Twilight 7:18 AM CST 6:58 PM CST
Nautical Twilight 6:51 AM CST 7:25 PM CST
Astronomical Twilight 6:23 AM CST 7:53 PM CST
Moon 11:39 AM CST (1/17) No Moon Set
Length of Visible Light 11h 39m
Length of Day
10h 50m
Waxing Crescent, 38% of the Moon is Illuminated
Jan 17
Waxing Crescent
Jan 18
First Quarter
Jan 26
Full
Feb 3
Last Quarter
Feb 10
New

Hourly Weather History & Observations

Time (CST) Temp. Windchill Dew Point Humidity Pressure Visibility Wind Dir Wind Speed Gust Speed Precip Events Conditions
5:59 AM 21.2 °F 13.6 °F 3.2 °F 46% 30.44 in 8.0 mi NNW 5.8 mph - N/A   Scattered Clouds
6:46 AM 21.2 °F 12.6 °F 3.2 °F 46% 30.45 in 8.0 mi NW 6.9 mph - N/A   Mostly Cloudy
7:42 AM 21.2 °F 16.4 °F 1.4 °F 42% 30.48 in 12.0 mi SW 3.5 mph - N/A   Mostly Cloudy
8:50 AM 29 °F - 11 °F 32% 30.56 in 19 mi Calm Calm - -   Overcast
8:50 AM 24.8 °F - 3.2 °F 40% 30.54 in 12.0 mi SSW 2.3 mph - N/A   Mostly Cloudy
9:46 AM 35.6 °F - 3.2 °F 26% 30.52 in 12.0 mi Calm Calm - N/A   Mostly Cloudy
10:46 AM 44.6 °F 43.1 °F -4.0 °F 13% 30.52 in 12.0 mi East 3.5 mph - N/A   Mostly Cloudy
11:40 AM 47 °F - 15 °F 16% 30.55 in 16 mi NE 2.2 mph - -   Scattered Clouds
11:53 AM 44.6 °F 42.2 °F -5.8 °F 12% 30.50 in 12.0 mi North 4.6 mph - N/A   Overcast
12:43 PM 46.4 °F 44.3 °F -5.8 °F 11% 30.46 in 14.0 mi North 4.6 mph - N/A   Overcast
1:42 PM 50.0 °F - -4.0 °F 11% 30.41 in 14.0 mi Calm Calm - N/A   Overcast
2:40 PM 54 °F - 18 °F 13% 30.36 in 25 mi NE 2.2 mph - -   Partly Cloudy
2:43 PM 53.6 °F - -2.2 °F 10% 30.38 in 14.0 mi NNW 4.6 mph - N/A   Mostly Cloudy
3:50 PM 53.6 °F - -2.2 °F 10% 30.36 in 14.0 mi North 4.6 mph - N/A   Mostly Cloudy
4:46 PM 55.4 °F - -0.4 °F 10% 30.36 in 14.0 mi NNE 5.8 mph - N/A   Mostly Cloudy
5:45 PM 55.4 °F - -0.4 °F 10% 30.37 in 14.0 mi North 8.1 mph - N/A   Mostly Cloudy
5:50 PM 54 °F - 16 °F 12% 30.26 in 19 mi NNE 2.2 mph - -   Partly Cloudy
6:50 PM 50.0 °F - 1.4 °F 14% 30.39 in 12.0 mi NNE 6.9 mph - N/A   Mostly Cloudy
7:47 PM 44.6 °F 42.2 °F 1.4 °F 17% 30.41 in 8.0 mi North 4.6 mph - N/A   Scattered Clouds
8:45 PM 42.8 °F 36.6 °F 3.2 °F 19% 30.44 in 8.0 mi North 11.5 mph - N/A   Scattered Clouds
8:55 PM 46 °F - 15 °F 16% 30.26 in 6 mi NNE 2.2 mph - -   Mostly Cloudy
9:45 PM 42.8 °F 36.6 °F 3.2 °F 19% 30.45 in 8.0 mi North 11.5 mph - N/A   Scattered Clouds
11:50 PM 41 °F - 17 °F 25% 30.26 in 6 mi Calm Calm - -   Mostly Cloudy